Location: Middle West Pubnico, Nova Scotia, Canada
(43.6568°N, 65.8177°W)
Time: 15:55:02
(UTC-04:00)

Envisat - Visible Passes

Search period start: 22 January 2022 00:00
Search period end: 01 February 2022 00:00
Orbit: 764 x 766 km, 98.2° (Epoch: 22 January)

Date Brightness Start Highest point End Pass type
(mag) Time Alt. Az. Time Alt. Az. Time Alt. Az.
22 Jan 4.7 04:31:35 10° NE 04:36:00 29° E 04:40:24 10° SSE visible
22 Jan 3.5 06:10:26 10° N 06:15:02 35° WNW 06:19:37 10° SW visible
23 Jan 5.8 03:56:18 10° ENE 03:58:45 13° E 04:01:12 10° ESE visible
23 Jan 2.8 05:33:14 10° N 05:38:20 76° WNW 05:43:23 10° SSW visible
23 Jan 4.8 07:15:15 10° NW 07:16:27 11° NW 07:17:39 10° WNW visible
24 Jan 3.8 04:56:28 10° NNE 05:01:25 50° E 05:06:20 10° S visible
24 Jan 4.1 06:36:15 10° NNW 06:40:05 22° WNW 06:43:54 10° WSW visible
24 Jan 6.1 17:54:08 10° WSW 17:56:39 14° W 17:59:10 10° WNW visible
25 Jan 5.1 04:20:17 10° NE 04:24:19 23° E 04:28:19 10° SE visible
25 Jan 3.2 05:58:42 10° N 06:03:31 44° WNW 06:08:18 10° SW visible
26 Jan 6.0 03:46:25 10° E 03:47:00 10° E 03:47:34 10° E visible
26 Jan 2.9 05:21:37 10° NNE 05:26:45 86° ESE 05:31:49 10° SSW visible
26 Jan 4.6 07:02:36 10° NNW 07:05:02 14° WNW 07:07:28 10° W visible
27 Jan 4.2 04:45:01 10° NNE 04:49:47 39° E 04:54:31 10° SSE visible
27 Jan 3.9 06:24:23 10° N 06:28:36 27° WNW 06:32:49 10° WSW visible
28 Jan 5.4 04:09:06 10° NE 04:12:37 18° E 04:16:05 10° SE visible
28 Jan 3.0 05:47:00 10° N 05:51:58 56° WNW 05:56:55 10° SSW visible
29 Jan 3.2 05:10:03 10° NNE 05:15:08 69° ESE 05:20:11 10° S visible
29 Jan 4.4 06:50:26 10° NNW 06:53:35 17° WNW 06:56:45 10° W visible
30 Jan 4.6 04:33:36 10° NNE 04:38:07 31° E 04:42:36 10° SSE visible
30 Jan 3.6 06:12:34 10° N 06:17:06 33° WNW 06:21:36 10° SW visible
31 Jan 5.7 03:58:08 10° NE 04:00:53 14° E 04:03:37 10° ESE visible
31 Jan 2.8 05:35:20 10° N 05:40:25 71° WNW 05:45:27 10° SSW visible
